Weather in Verona

Italy     45˚26′29″N   10˚58′24″E
temp.,
°C
wind,
m/s
gust,
m/s
humid.,
%
clouds,
%
prec.,
mm/h
press.,
hPa
HPBL,
m
1 december, tue
tue101:00+2˚nnw11770 0.0 102123
04:00+2˚nnw118120 0.0 102025
07:00+1˚ne008210 0.0 101826
10:00+4˚ese127368 0.0 1017178
13:00+5˚se126984 0.0 1015330
16:00+4˚e1174100 0.0 101489
19:00+3˚ene2265100 0.0 101547
22:00+3˚ene3455100 0.0 1015149
2 december, wed
wed201:00+3˚ene2461100 0.1 1014165
04:00+3˚ene1356100 0.1 1012118
07:00+2˚ne2389100 2.8 1012190
10:00+3˚nne1394100 3.1 1012180
13:00+4˚ese1793100 5.3 1011392
16:00+4˚e019499 0.8 101195
19:00+4˚nne1194100 1.5 101177
22:00+4˚w1294100 0.1 101088
3 december, thu
thu301:00+4˚w1290100 0.4 100796
04:00+4˚wnw1289100 0.3 100684
07:00+4˚nw1283100 0.3 100652
10:00+5˚e118098 0.0 1005155
13:00+6˚ssw008599 0.1 1004210
16:00+5˚sse119097 0.0 1003123
19:00+4˚s119597 0.0 1004122
22:00+3˚w119482 0.0 100357
4 december, fri
fri401:00+3˚wnw119356 0.0 100233
04:00+2˚e128753 0.0 100031
07:00+2˚ne239677 1.3 999167
10:00+4˚ene4889100 0.8 998576
13:00+5˚ene61388100 3.3 995788
16:00+5˚ene81485100 6.1 991565
19:00+5˚ne4690100 10.9 991246
22:00+6˚e2495100 2.5 990156
5 december, sat
sat501:00+6˚ne2383100 5.2 99046
04:00+6˚ne2389100 2.1 99064
07:00+6˚nne2270100 2.1 99132
10:00+6˚nne3572100 0.5 992233
13:00+8˚se0166100 0.5 991343
16:00+6˚w2484100 0.3 991396
19:00+6˚w2389100 0.4 992260
22:00+5˚w249199 0.0 993268